Time,TemperatureF,DewpointF,PressureIn,WindDirection,WindDirectionDegrees,WindSpeedMPH,WindSpeedGustMPH,Humidity,HourlyPrecipIn,Conditions,Clouds,dailyrainin,SoftwareType,DateUTC
2013-03-05 00:00:00,30.6,24.8,30.04,ENE,67,0.0,0.0,79,0.00,,,0.00,WUHU21623XXSP,2013-03-05 05:00:00,
2013-03-05 00:05:00,30.4,24.7,30.03,ENE,67,0.0,0.0,79,0.00,,,0.00,WUHU21623XXSP,2013-03-05 05:05:00,
2013-03-05 00:10:00,30.4,24.7,30.03,ESE,112,0.0,0.0,79,0.00,,,0.00,WUHU21623XXSP,2013-03-05 05:10:00,
2013-03-05 00:15:00,30.2,24.5,30.03,ESE,112,0.0,0.0,79,0.00,,,0.00,WUHU21623XXSP,2013-03-05 05:15:00,
2013-03-05 00:20:00,30.2,24.5,30.03,East,90,0.0,0.0,79,0.00,,,0.00,WUHU21623XXSP,2013-03-05 05:20:00,
2013-03-05 00:25:00,30.2,24.8,30.03,East,90,0.0,0.0,80,0.00,,,0.00,WUHU21623XXSP,2013-03-05 05:25:00,
2013-03-05 00:30:00,30.0,24.6,30.03,ENE,67,0.0,0.0,80,0.00,,,0.00,WUHU21623XXSP,2013-03-05 05:30:00,
2013-03-05 00:35:00,30.0,24.6,30.03,East,90,0.0,0.0,80,0.00,,,0.00,WUHU21623XXSP,2013-03-05 05:35:00,
2013-03-05 00:40:00,30.0,24.6,30.03,East,90,0.0,0.0,80,0.00,,,0.00,WUHU21623XXSP,2013-03-05 05:40:00,
2013-03-05 00:45:00,30.0,24.6,30.03,SE,135,0.0,0.0,80,0.00,,,0.00,WUHU21623XXSP,2013-03-05 05:45:00,
2013-03-05 00:50:00,30.0,24.6,30.03,ENE,67,0.0,0.0,80,0.00,,,0.00,WUHU21623XXSP,2013-03-05 05:50:00,
2013-03-05 00:55:00,30.0,24.6,30.03,ENE,67,0.0,0.0,80,0.00,,,0.00,WUHU21623XXSP,2013-03-05 05:55:00,
2013-03-05 01:00:00,30.0,24.6,30.02,ENE,67,0.0,0.0,80,0.00,,,0.00,WUHU21623XXSP,2013-03-05 06:00:00,
2013-03-05 01:05:00,30.0,24.6,30.03,ENE,67,0.0,0.0,80,0.00,,,0.00,WUHU21623XXSP,2013-03-05 06:05:00,
2013-03-05 01:10:00,30.0,24.9,30.03,ENE,67,0.0,0.0,81,0.00,,,0.00,WUHU21623XXSP,2013-03-05 06:10:00,
2013-03-05 01:15:00,30.0,24.9,30.02,East,90,0.0,0.0,81,0.00,,,0.00,WUHU21623XXSP,2013-03-05 06:15:00,
2013-03-05 01:20:00,30.0,24.9,30.02,East,90,0.0,0.0,81,0.00,,,0.00,WUHU21623XXSP,2013-03-05 06:20:00,
2013-03-05 01:25:00,30.2,25.1,30.02,East,90,0.0,0.0,81,0.00,,,0.00,WUHU21623XXSP,2013-03-05 06:25:00,
2013-03-05 01:30:00,30.2,25.1,30.01,East,90,0.0,0.0,81,0.00,,,0.00,WUHU21623XXSP,2013-03-05 06:30:00,
2013-03-05 01:35:00,30.2,25.1,30.01,East,90,0.0,0.0,81,0.00,,,0.00,WUHU21623XXSP,2013-03-05 06:35:00,
2013-03-05 01:40:00,30.2,25.1,30.01,ENE,67,0.0,0.0,81,0.00,,,0.00,WUHU21623XXSP,2013-03-05 06:40:00,
2013-03-05 01:45:00,30.4,25.3,30.01,SE,135,0.0,0.0,81,0.00,,,0.00,WUHU21623XXSP,2013-03-05 06:45:00,
2013-03-05 01:50:00,30.4,25.3,30.01,ESE,112,0.0,0.0,81,0.00,,,0.00,WUHU21623XXSP,2013-03-05 06:50:00,
2013-03-05 01:55:00,30.4,25.3,30.01,ESE,112,0.0,0.0,81,0.00,,,0.00,WUHU21623XXSP,2013-03-05 06:55:00,
2013-03-05 02:00:00,30.4,25.3,30.01,ESE,112,0.0,0.0,81,0.00,,,0.00,WUHU21623XXSP,2013-03-05 07:00:00,
2013-03-05 02:05:00,30.4,25.3,30.01,ESE,112,0.0,0.0,81,0.00,,,0.00,WUHU21623XXSP,2013-03-05 07:05:00,
2013-03-05 02:10:00,30.4,25.3,30.01,ESE,112,0.0,0.0,81,0.00,,,0.00,WUHU21623XXSP,2013-03-05 07:10:00,
2013-03-05 02:15:00,30.6,25.4,30.00,East,90,0.0,0.0,81,0.00,,,0.00,WUHU21623XXSP,2013-03-05 07:15:00,
2013-03-05 02:20:00,30.6,25.4,30.00,ESE,112,0.0,0.0,81,0.00,,,0.00,WUHU21623XXSP,2013-03-05 07:20:00,
2013-03-05 02:25:00,30.6,25.4,30.00,ESE,112,0.0,0.0,81,0.00,,,0.00,WUHU21623XXSP,2013-03-05 07:25:00,
2013-03-05 02:30:00,30.7,25.9,30.00,ENE,67,0.0,0.0,82,0.00,,,0.00,WUHU21623XXSP,2013-03-05 07:30:00,
2013-03-05 02:35:00,30.7,25.9,30.00,ENE,67,0.0,0.0,82,0.00,,,0.00,WUHU21623XXSP,2013-03-05 07:35:00,
2013-03-05 02:40:00,30.7,25.9,30.00,SE,135,0.0,0.0,82,0.00,,,0.00,WUHU21623XXSP,2013-03-05 07:40:00,
2013-03-05 02:45:00,30.7,25.9,29.99,ENE,67,0.0,0.0,82,0.00,,,0.00,WUHU21623XXSP,2013-03-05 07:45:00,
2013-03-05 02:50:00,30.7,25.9,29.99,ENE,67,0.0,0.0,82,0.00,,,0.00,WUHU21623XXSP,2013-03-05 07:50:00,
2013-03-05 02:55:00,30.7,25.9,29.99,ENE,67,0.0,0.0,82,0.00,,,0.00,WUHU21623XXSP,2013-03-05 07:55:00,
2013-03-05 03:00:00,30.7,25.9,29.98,NE,45,0.0,0.0,82,0.00,,,0.00,WUHU21623XXSP,2013-03-05 08:00:00,
2013-03-05 03:05:00,30.7,25.9,29.98,NE,45,0.0,0.0,82,0.00,,,0.00,WUHU21623XXSP,2013-03-05 08:05:00,
2013-03-05 03:10:00,30.7,25.9,29.98,NE,45,0.0,0.0,82,0.00,,,0.00,WUHU21623XXSP,2013-03-05 08:10:00,
2013-03-05 03:15:00,30.9,26.1,29.98,ESE,112,0.0,0.0,82,0.00,,,0.00,WUHU21623XXSP,2013-03-05 08:15:00,
2013-03-05 04:11:00,31.1,26.5,29.96,SE,135,0.0,0.0,83,0.00,,,0.00,WUHU21623XXSP,2013-03-05 09:11:00,
2013-03-05 05:11:00,30.9,26.6,29.94,ENE,68,0.0,0.0,84,0.00,,,0.00,WUHU21623XXSP,2013-03-05 10:11:00,
2013-03-05 06:11:00,30.9,26.9,29.93,NE,45,6.0,6.0,85,0.00,,,0.00,WUHU21623XXSP,2013-03-05 11:11:00,
2013-03-05 07:11:00,30.9,26.9,29.93,SSE,158,0.0,0.0,85,0.00,,,0.00,WUHU21623XXSP,2013-03-05 12:11:00,
2013-03-05 08:14:00,31.1,26.9,29.92,SE,135,3.6,3.6,84,0.00,,,0.00,WUHU21623XXSP,2013-03-05 13:14:00,
2013-03-05 08:19:00,31.3,27.0,29.92,ESE,112,2.5,3.6,84,0.18,,,0.18,WUHU21623XXSP,2013-03-05 13:19:00,
2013-03-05 08:25:00,31.3,27.0,29.92,ESE,112,2.5,2.5,84,0.18,,,0.18,WUHU21623XXSP,2013-03-05 13:25:00,
2013-03-05 08:30:00,31.5,27.2,29.92,East,90,2.9,2.9,84,0.18,,,0.18,WUHU21623XXSP,2013-03-05 13:30:00,
2013-03-05 08:35:00,31.5,27.2,29.91,SE,135,4.7,4.7,84,0.18,,,0.18,WUHU21623XXSP,2013-03-05 13:35:00,
2013-03-05 08:40:00,31.6,27.1,29.90,ESE,112,2.0,4.7,83,0.18,,,0.18,WUHU21623XXSP,2013-03-05 13:40:00,
2013-03-05 08:45:00,31.8,27.3,29.90,East,90,3.1,4.7,83,0.18,,,0.18,WUHU21623XXSP,2013-03-05 13:45:00,
2013-03-05 08:50:00,31.8,27.3,29.90,ESE,105,5.9,6.5,83,0.18,,,0.18,WUHU21623XXSP,2013-03-05 13:50:00,
2013-03-05 08:55:00,31.8,27.3,29.90,ESE,112,5.6,6.5,83,0.18,,,0.18,WUHU21623XXSP,2013-03-05 13:55:00,
2013-03-05 09:00:00,31.8,27.0,29.90,ESE,112,0.0,5.6,82,0.18,,,0.18,WUHU21623XXSP,2013-03-05 14:00:00,
2013-03-05 09:05:00,32.2,27.3,29.90,ESE,112,2.2,4.7,82,0.18,,,0.18,WUHU21623XXSP,2013-03-05 14:05:00,
2013-03-05 09:10:00,32.2,27.3,29.90,East,90,2.2,4.7,82,0.18,,,0.18,WUHU21623XXSP,2013-03-05 14:10:00,
2013-03-05 09:15:00,32.2,27.3,29.90,ENE,67,2.2,2.2,82,0.00,,,0.18,WUHU21623XXSP,2013-03-05 14:15:00,
2013-03-05 09:20:00,32.2,27.3,29.90,ENE,67,2.2,2.2,82,0.00,,,0.18,WUHU21623XXSP,2013-03-05 14:20:00,
2013-03-05 09:25:00,32.4,27.5,29.90,East,90,1.3,3.4,82,0.00,,,0.18,WUHU21623XXSP,2013-03-05 14:25:00,
2013-03-05 09:30:00,32.2,27.1,29.90,SE,135,6.3,6.3,81,0.00,,,0.18,WUHU21623XXSP,2013-03-05 14:30:00,
2013-03-05 09:35:00,32.2,27.1,29.90,East,90,2.2,6.3,81,0.00,,,0.18,WUHU21623XXSP,2013-03-05 14:35:00,
2013-03-05 09:40:00,32.4,27.2,29.89,SSE,157,4.7,4.7,81,0.00,,,0.18,WUHU21623XXSP,2013-03-05 14:40:00,
2013-03-05 09:45:00,32.4,27.2,29.89,ESE,112,3.4,4.7,81,0.00,,,0.18,WUHU21623XXSP,2013-03-05 14:45:00,
2013-03-05 09:50:00,32.4,27.2,29.89,ESE,112,3.4,4.7,81,0.00,,,0.18,WUHU21623XXSP,2013-03-05 14:50:00,
2013-03-05 09:55:00,32.5,27.4,29.89,ESE,112,0.0,3.4,81,0.00,,,0.18,WUHU21623XXSP,2013-03-05 14:55:00,
2013-03-05 10:00:00,32.5,27.4,29.89,East,90,0.7,3.4,81,0.00,,,0.18,WUHU21623XXSP,2013-03-05 15:00:00,
2013-03-05 10:05:00,32.5,27.4,29.88,East,90,0.7,0.7,81,0.00,,,0.18,WUHU21623XXSP,2013-03-05 15:05:00,
2013-03-05 10:10:00,32.5,27.1,29.88,ESE,112,0.0,0.7,80,0.00,,,0.18,WUHU21623XXSP,2013-03-05 15:10:00,
2013-03-05 10:15:00,32.5,27.1,29.88,ESE,112,4.9,6.5,80,0.00,,,0.18,WUHU21623XXSP,2013-03-05 15:15:00,
2013-03-05 10:20:00,32.4,26.9,29.89,SE,127,5.4,6.5,80,0.00,,,0.18,WUHU21623XXSP,2013-03-05 15:20:00,
2013-03-05 10:25:00,32.4,26.9,29.88,ESE,112,3.6,6.0,80,0.00,,,0.18,WUHU21623XXSP,2013-03-05 15:25:00,
2013-03-05 10:30:00,32.4,26.9,29.88,ESE,113,3.5,4.5,80,0.00,,,0.18,WUHU21623XXSP,2013-03-05 15:30:00,
2013-03-05 10:35:00,32.4,26.9,29.88,SSE,157,4.7,4.7,80,0.00,,,0.18,WUHU21623XXSP,2013-03-05 15:35:00,
2013-03-05 10:40:00,32.2,26.8,29.88,ENE,67,2.0,4.7,80,0.00,,,0.18,WUHU21623XXSP,2013-03-05 15:40:00,
2013-03-05 10:45:00,32.4,26.9,29.88,SE,135,2.0,4.7,80,0.00,,,0.18,WUHU21623XXSP,2013-03-05 15:45:00,
2013-03-05 10:50:00,32.4,26.9,29.88,East,90,4.7,4.7,80,0.00,,,0.18,WUHU21623XXSP,2013-03-05 15:50:00,
2013-03-05 10:55:00,32.4,26.9,29.87,East,90,4.7,4.7,80,0.00,,,0.18,WUHU21623XXSP,2013-03-05 15:55:00,
2013-03-05 11:00:00,32.5,27.0,29.86,ENE,67,6.9,6.9,80,0.00,,,0.18,WUHU21623XXSP,2013-03-05 16:00:00,
2013-03-05 11:05:00,32.1,26.6,29.86,ENE,67,4.5,6.9,80,0.00,,,0.18,WUHU21623XXSP,2013-03-05 16:05:00,
2013-03-05 11:10:00,31.9,26.4,29.85,ENE,67,4.5,6.9,80,0.00,,,0.18,WUHU21623XXSP,2013-03-05 16:10:00,
2013-03-05 11:15:00,31.8,26.3,29.85,SE,135,6.0,6.0,80,0.00,,,0.18,WUHU21623XXSP,2013-03-05 16:15:00,
2013-03-05 11:20:00,31.5,26.0,29.85,ENE,67,5.6,6.0,80,0.00,,,0.18,WUHU21623XXSP,2013-03-05 16:20:00,
2013-03-05 11:25:00,31.2,25.7,29.85,SE,135,3.8,6.0,80,0.00,,,0.18,WUHU21623XXSP,2013-03-05 16:25:00,
2013-03-05 11:30:00,30.9,25.5,29.85,ENE,67,7.4,7.4,80,0.00,,,0.18,WUHU21623XXSP,2013-03-05 16:30:00,
2013-03-05 11:35:00,31.2,25.8,29.84,East,90,3.8,7.4,80,0.00,,,0.18,WUHU21623XXSP,2013-03-05 16:35:00,
2013-03-05 11:40:00,30.9,25.5,29.84,ENE,67,5.1,7.4,80,0.00,,,0.18,WUHU21623XXSP,2013-03-05 16:40:00,
2013-03-05 11:45:00,30.9,25.5,29.83,East,90,4.5,5.1,80,0.00,,,0.18,WUHU21623XXSP,2013-03-05 16:45:00,
2013-03-05 11:50:00,31.0,25.6,29.83,SE,135,3.1,5.1,80,0.00,,,0.18,WUHU21623XXSP,2013-03-05 16:50:00,
2013-03-05 11:55:00,30.8,25.3,29.84,SSE,157,2.2,4.5,80,0.00,,,0.18,WUHU21623XXSP,2013-03-05 16:55:00,
2013-03-05 12:00:00,30.1,24.4,29.83,ESE,112,5.1,5.1,79,0.00,,,0.18,WUHU21623XXSP,2013-03-05 17:00:00,
2013-03-05 12:05:00,29.8,24.1,29.83,ESE,112,5.1,5.1,79,0.00,,,0.18,WUHU21623XXSP,2013-03-05 17:05:00,
2013-03-05 12:10:00,29.6,23.9,29.83,SSE,158,3.6,5.1,79,0.00,,,0.18,WUHU21623XXSP,2013-03-05 17:10:00,
2013-03-05 12:15:00,29.1,23.4,29.83,SE,134,2.0,5.1,79,0.00,,,0.18,WUHU21623XXSP,2013-03-05 17:15:00,
2013-03-05 12:20:00,28.9,23.2,29.83,SE,135,2.7,3.1,79,0.00,,,0.18,WUHU21623XXSP,2013-03-05 17:20:00,
2013-03-05 12:25:00,28.7,23.0,29.83,East,97,2.7,7.8,79,0.00,,,0.18,WUHU21623XXSP,2013-03-05 17:25:00,
2013-03-05 12:30:00,28.4,22.7,29.83,South,180,3.8,7.8,79,0.00,,,0.18,WUHU21623XXSP,2013-03-05 17:30:00,
2013-03-05 12:35:00,28.1,22.5,29.82,South,180,3.8,3.8,79,0.00,,,0.18,WUHU21623XXSP,2013-03-05 17:35:00,
2013-03-05 12:40:00,27.7,22.1,29.82,ENE,67,5.8,5.8,79,0.00,,,0.18,WUHU21623XXSP,2013-03-05 17:40:00,
2013-03-05 12:45:00,27.5,22.2,29.82,SE,135,2.5,5.8,80,0.00,,,0.18,WUHU21623XXSP,2013-03-05 17:45:00,
2013-03-05 12:50:00,27.2,21.8,29.82,ESE,112,2.0,5.8,80,0.00,,,0.18,WUHU21623XXSP,2013-03-05 17:50:00,
2013-03-05 12:55:00,27.0,21.7,29.82,SE,135,0.0,2.5,80,0.00,,,0.18,WUHU21623XXSP,2013-03-05 17:55:00,
2013-03-05 13:00:00,26.6,21.3,29.81,SE,135,1.6,2.0,80,0.00,,,0.18,WUHU21623XXSP,2013-03-05 18:00:00,
2013-03-05 13:05:00,26.5,21.4,29.81,SE,142,1.8,2.7,81,0.00,,,0.18,WUHU21623XXSP,2013-03-05 18:05:00,
2013-03-05 13:10:00,26.2,20.8,29.80,ENE,67,5.1,5.1,80,0.00,,,0.18,WUHU21623XXSP,2013-03-05 18:10:00,
2013-03-05 13:15:00,26.0,21.0,29.79,SE,135,3.1,5.1,81,0.00,,,0.18,WUHU21623XXSP,2013-03-05 18:15:00,
2013-03-05 13:20:00,25.9,20.9,29.79,SE,135,3.1,5.1,81,0.00,,,0.18,WUHU21623XXSP,2013-03-05 18:20:00,
2013-03-05 13:25:00,25.8,20.8,29.79,East,90,1.3,3.1,81,0.00,,,0.18,WUHU21623XXSP,2013-03-05 18:25:00,
2013-03-05 13:30:00,25.7,21.0,29.79,East,90,1.3,1.3,82,0.00,,,0.18,WUHU21623XXSP,2013-03-05 18:30:00,
2013-03-05 13:35:00,25.7,20.9,29.79,East,90,3.1,3.1,82,0.00,,,0.18,WUHU21623XXSP,2013-03-05 18:35:00,
2013-03-05 13:40:00,25.6,20.9,29.79,ESE,120,1.7,6.0,82,0.00,,,0.18,WUHU21623XXSP,2013-03-05 18:40:00,
2013-03-05 13:45:00,25.3,20.5,29.78,ENE,67,3.1,6.0,82,0.00,,,0.18,WUHU21623XXSP,2013-03-05 18:45:00,
2013-03-05 13:50:00,25.4,20.7,29.78,ENE,67,3.1,3.1,82,0.00,,,0.18,WUHU21623XXSP,2013-03-05 18:50:00,
2013-03-05 13:55:00,25.2,20.5,29.77,SE,135,2.5,3.1,82,0.00,,,0.18,WUHU21623XXSP,2013-03-05 18:55:00,
2013-03-05 14:00:00,25.2,20.5,29.77,East,90,2.5,3.1,82,0.00,,,0.18,WUHU21623XXSP,2013-03-05 19:00:00,
2013-03-05 14:05:00,25.2,20.5,29.77,East,90,2.5,2.5,82,0.00,,,0.18,WUHU21623XXSP,2013-03-05 19:05:00,
2013-03-05 14:10:00,25.2,20.5,29.76,East,90,2.5,2.5,82,0.00,,,0.18,WUHU21623XXSP,2013-03-05 19:10:00,
2013-03-05 14:15:00,25.3,20.8,29.75,SE,135,2.7,4.0,83,0.00,,,0.18,WUHU21623XXSP,2013-03-05 19:15:00,
2013-03-05 14:20:00,24.9,20.5,29.75,SE,135,2.7,4.0,83,0.00,,,0.18,WUHU21623XXSP,2013-03-05 19:20:00,
2013-03-05 14:25:00,25.0,20.5,29.75,East,90,0.0,2.7,83,0.00,,,0.18,WUHU21623XXSP,2013-03-05 19:25:00,
2013-03-05 14:30:00,25.0,20.6,29.74,East,90,0.0,0.0,83,0.00,,,0.18,WUHU21623XXSP,2013-03-05 19:30:00,
2013-03-05 14:35:00,25.1,20.7,29.74,East,90,4.9,4.9,83,0.00,,,0.18,WUHU21623XXSP,2013-03-05 19:35:00,
2013-03-05 14:40:00,25.0,20.6,29.74,East,90,1.8,4.9,83,0.00,,,0.18,WUHU21623XXSP,2013-03-05 19:40:00,
2013-03-05 14:45:00,25.1,20.7,29.74,ENE,67,1.3,1.8,83,0.00,,,0.18,WUHU21623XXSP,2013-03-05 19:45:00,
2013-03-05 14:50:00,25.2,20.7,29.74,ESE,112,0.0,1.8,83,0.00,,,0.18,WUHU21623XXSP,2013-03-05 19:50:00,
2013-03-05 14:55:00,25.1,20.6,29.73,SSE,157,3.1,3.1,83,0.00,,,0.18,WUHU21623XXSP,2013-03-05 19:55:00,
2013-03-05 15:00:00,25.2,21.1,29.73,ENE,67,0.9,4.0,84,0.00,,,0.18,WUHU21623XXSP,2013-03-05 20:00:00,
2013-03-05 15:05:00,25.4,21.2,29.72,ENE,67,4.7,4.7,84,0.00,,,0.18,WUHU21623XXSP,2013-03-05 20:05:00,
2013-03-05 15:10:00,25.6,21.4,29.72,ENE,67,4.7,4.7,84,0.00,,,0.18,WUHU21623XXSP,2013-03-05 20:10:00,
2013-03-05 15:15:00,25.6,21.4,29.72,ESE,112,5.4,5.4,84,0.00,,,0.18,WUHU21623XXSP,2013-03-05 20:15:00,
2013-03-05 15:22:00,25.7,21.5,29.72,ESE,112,5.4,5.4,84,0.00,,,0.18,WUHU21623XXSP,2013-03-05 20:22:00,
2013-03-05 15:27:00,26.0,21.8,29.71,East,82,1.6,2.9,84,0.00,,,0.18,WUHU21623XXSP,2013-03-05 20:27:00,
2013-03-05 15:32:00,26.2,22.1,29.71,East,90,2.5,2.9,84,0.00,,,0.18,WUHU21623XXSP,2013-03-05 20:32:00,
2013-03-05 15:37:00,26.5,22.3,29.71,ENE,67,5.1,5.1,84,0.00,,,0.18,WUHU21623XXSP,2013-03-05 20:37:00,
2013-03-05 15:42:00,26.7,22.5,29.71,ENE,67,2.7,5.1,84,0.00,,,0.18,WUHU21623XXSP,2013-03-05 20:42:00,
2013-03-05 15:47:00,26.9,22.7,29.71,ENE,67,0.0,5.1,84,0.00,,,0.18,WUHU21623XXSP,2013-03-05 20:47:00,
2013-03-05 15:52:00,27.2,23.0,29.71,ENE,67,0.0,2.7,84,0.00,,,0.18,WUHU21623XXSP,2013-03-05 20:52:00,
2013-03-05 15:57:00,27.5,23.2,29.71,ENE,74,0.9,2.0,84,0.00,,,0.18,WUHU21623XXSP,2013-03-05 20:57:00,
2013-03-05 16:02:00,27.7,23.5,29.71,ENE,67,0.7,2.0,84,0.00,,,0.18,WUHU21623XXSP,2013-03-05 21:02:00,
2013-03-05 16:07:00,28.0,23.8,29.70,East,90,2.2,2.2,84,0.00,,,0.18,WUHU21623XXSP,2013-03-05 21:07:00,
2013-03-05 16:12:00,28.1,23.8,29.71,East,90,1.6,2.2,84,0.00,,,0.18,WUHU21623XXSP,2013-03-05 21:12:00,
2013-03-05 16:17:00,28.3,24.1,29.71,ENE,67,2.9,3.1,84,0.00,,,0.18,WUHU21623XXSP,2013-03-05 21:17:00,
2013-03-05 16:22:00,28.4,24.2,29.71,ENE,67,0.0,3.1,84,0.00,,,0.18,WUHU21623XXSP,2013-03-05 21:22:00,
2013-03-05 16:27:00,28.7,24.5,29.71,SE,135,5.4,5.4,84,0.00,,,0.18,WUHU21623XXSP,2013-03-05 21:27:00,
2013-03-05 16:32:00,29.0,24.8,29.71,ENE,67,0.0,5.4,84,0.00,,,0.18,WUHU21623XXSP,2013-03-05 21:32:00,
2013-03-05 16:37:00,29.3,25.1,29.71,East,90,0.7,5.4,84,0.00,,,0.18,WUHU21623XXSP,2013-03-05 21:37:00,
2013-03-05 16:42:00,29.6,25.3,29.71,ENE,67,0.0,0.7,84,0.00,,,0.18,WUHU21623XXSP,2013-03-05 21:42:00,
2013-03-05 16:47:00,29.9,25.7,29.71,ENE,67,0.0,0.7,84,0.00,,,0.18,WUHU21623XXSP,2013-03-05 21:47:00,
2013-03-05 16:52:00,30.2,25.9,29.71,ENE,67,0.0,0.7,84,0.00,,,0.18,WUHU21623XXSP,2013-03-05 21:52:00,
2013-03-05 16:57:00,30.5,26.2,29.72,ENE,67,0.0,0.0,84,0.00,,,0.18,WUHU21623XXSP,2013-03-05 21:57:00,
2013-03-05 17:02:00,30.7,26.5,29.72,ENE,67,0.0,0.0,84,0.00,,,0.18,WUHU21623XXSP,2013-03-05 22:02:00,
2013-03-05 17:07:00,30.7,26.5,29.72,ENE,67,0.0,0.0,84,0.00,,,0.18,WUHU21623XXSP,2013-03-05 22:07:00,
2013-03-05 17:12:00,30.7,26.5,29.72,ENE,67,0.0,0.0,84,0.00,,,0.18,WUHU21623XXSP,2013-03-05 22:12:00,
2013-03-05 17:17:00,30.7,26.5,29.72,ENE,67,0.0,0.0,84,0.00,,,0.18,WUHU21623XXSP,2013-03-05 22:17:00,
2013-03-05 17:22:00,30.7,26.5,29.72,ENE,67,0.0,0.0,84,0.00,,,0.18,WUHU21623XXSP,2013-03-05 22:22:00,
2013-03-05 17:27:00,30.7,26.5,29.72,ENE,67,0.0,0.0,84,0.00,,,0.18,WUHU21623XXSP,2013-03-05 22:27:00,
2013-03-05 17:32:00,30.7,26.5,29.72,ENE,67,0.0,0.0,84,0.00,,,0.18,WUHU21623XXSP,2013-03-05 22:32:00,
2013-03-05 17:37:00,30.7,26.5,29.72,ENE,67,0.0,0.0,84,0.00,,,0.18,WUHU21623XXSP,2013-03-05 22:37:00,
2013-03-05 17:42:00,30.7,26.5,29.72,ENE,67,0.0,0.0,84,0.00,,,0.18,WUHU21623XXSP,2013-03-05 22:42:00,
2013-03-05 17:47:00,30.7,26.5,29.72,East,90,0.0,0.0,84,0.00,,,0.18,WUHU21623XXSP,2013-03-05 22:47:00,
2013-03-05 17:52:00,30.7,26.5,29.73,East,90,0.0,0.0,84,0.00,,,0.18,WUHU21623XXSP,2013-03-05 22:52:00,
2013-03-05 17:57:00,30.7,26.5,29.73,East,90,0.0,0.0,84,0.00,,,0.18,WUHU21623XXSP,2013-03-05 22:57:00,
2013-03-05 18:02:00,30.7,26.5,29.73,East,90,0.0,0.0,84,0.00,,,0.18,WUHU21623XXSP,2013-03-05 23:02:00,
2013-03-05 18:07:00,30.7,26.5,29.73,East,90,0.0,0.0,84,0.00,,,0.18,WUHU21623XXSP,2013-03-05 23:07:00,
2013-03-05 18:12:00,30.7,26.5,29.73,East,90,0.0,0.0,84,0.00,,,0.18,WUHU21623XXSP,2013-03-05 23:12:00,
2013-03-05 18:17:00,30.6,26.3,29.73,East,90,0.0,0.0,84,0.00,,,0.18,WUHU21623XXSP,2013-03-05 23:17:00,
2013-03-05 18:22:00,30.6,26.3,29.73,East,90,0.0,0.0,84,0.00,,,0.18,WUHU21623XXSP,2013-03-05 23:22:00,
2013-03-05 18:27:00,30.6,26.3,29.73,East,90,0.0,0.0,84,0.00,,,0.18,WUHU21623XXSP,2013-03-05 23:27:00,
2013-03-05 18:32:00,30.4,26.1,29.73,East,90,0.0,0.0,84,0.00,,,0.18,WUHU21623XXSP,2013-03-05 23:32:00,
2013-03-05 18:37:00,30.4,26.1,29.73,East,90,0.0,0.0,84,0.00,,,0.18,WUHU21623XXSP,2013-03-05 23:37:00,
2013-03-05 18:42:00,30.2,26.0,29.73,East,90,0.0,0.0,84,0.00,,,0.18,WUHU21623XXSP,2013-03-05 23:42:00,
2013-03-05 18:47:00,30.0,25.8,29.74,East,90,0.0,0.0,84,0.00,,,0.18,WUHU21623XXSP,2013-03-05 23:47:00,
2013-03-05 18:52:00,30.0,25.8,29.74,East,90,0.0,0.0,84,0.00,,,0.18,WUHU21623XXSP,2013-03-05 23:52:00,
2013-03-05 18:57:00,30.0,9.6,29.74,East,90,0.0,0.0,42,0.00,,,0.18,WUHU21623XXSP,2013-03-05 23:57:00,
2013-03-05 19:02:00,30.0,9.6,29.74,East,90,0.0,0.0,42,0.00,,,0.18,WUHU21623XXSP,2013-03-06 00:02:00,
2013-03-05 19:07:00,30.0,9.6,29.74,East,90,0.0,0.0,42,0.00,,,0.18,WUHU21623XXSP,2013-03-06 00:07:00,
2013-03-05 19:12:00,30.0,9.6,29.74,East,90,0.0,0.0,42,0.00,,,0.18,WUHU21623XXSP,2013-03-06 00:12:00,
2013-03-05 19:17:00,30.0,9.6,29.74,East,90,0.0,0.0,42,0.00,,,0.18,WUHU21623XXSP,2013-03-06 00:17:00,
2013-03-05 19:22:00,30.0,9.5,29.74,East,90,0.0,0.0,42,0.00,,,0.18,WUHU21623XXSP,2013-03-06 00:22:00,
2013-03-05 19:27:00,30.0,25.8,29.74,East,90,0.0,0.0,84,0.00,,,0.18,WUHU21623XXSP,2013-03-06 00:27:00,
2013-03-05 19:32:00,29.3,25.1,29.75,East,90,0.0,0.0,84,0.00,,,0.18,WUHU21623XXSP,2013-03-06 00:32:00,
2013-03-05 19:37:00,29.3,25.1,29.75,East,90,0.0,0.0,84,0.00,,,0.18,WUHU21623XXSP,2013-03-06 00:37:00,
2013-03-05 19:42:00,29.3,25.1,29.75,East,90,0.0,0.0,84,0.00,,,0.18,WUHU21623XXSP,2013-03-06 00:42:00,
2013-03-05 19:47:00,29.1,24.8,29.75,North,0,0.0,0.0,84,0.00,,,0.18,WUHU21623XXSP,2013-03-06 00:47:00,
2013-03-05 19:52:00,29.1,24.9,29.75,East,90,0.0,0.0,84,0.00,,,0.18,WUHU21623XXSP,2013-03-06 00:52:00,
2013-03-05 19:57:00,29.1,24.9,29.76,East,90,0.0,0.0,84,0.00,,,0.18,WUHU21623XXSP,2013-03-06 00:57:00,
2013-03-05 20:01:00,29.1,24.9,29.76,North,0,0.0,0.0,84,0.00,,,0.18,WUHU21623XXSP,2013-03-06 01:01:00,
2013-03-05 20:02:00,29.1,24.9,29.76,East,90,0.0,0.0,84,0.00,,,0.18,WUHU21623XXSP,2013-03-06 01:02:00,
2013-03-05 20:07:00,29.1,24.9,29.76,North,0,0.0,0.0,84,0.00,,,0.18,WUHU21623XXSP,2013-03-06 01:07:00,
2013-03-05 22:13:00,28.2,24.0,29.77,North,0,0.0,0.0,84,0.00,,,0.18,WUHU21623XXSP,2013-03-06 03:13:00,
2013-03-05 22:18:00,28.2,24.0,29.77,East,90,0.0,0.0,84,0.00,,,0.18,WUHU21623XXSP,2013-03-06 03:18:00,
2013-03-05 22:23:00,28.2,24.0,29.77,East,90,0.0,0.0,84,0.00,,,0.18,WUHU21623XXSP,2013-03-06 03:23:00,
2013-03-05 22:28:00,28.2,24.0,29.78,East,90,0.0,0.0,84,0.00,,,0.18,WUHU21623XXSP,2013-03-06 03:28:00,
2013-03-05 22:33:00,28.2,24.0,29.78,East,90,0.0,0.0,84,0.00,,,0.18,WUHU21623XXSP,2013-03-06 03:33:00,
2013-03-05 22:38:00,28.2,24.0,29.78,East,90,0.0,0.0,84,0.00,,,0.18,WUHU21623XXSP,2013-03-06 03:38:00,
2013-03-05 22:43:00,28.2,24.3,29.78,East,90,0.0,0.0,85,0.00,,,0.18,WUHU21623XXSP,2013-03-06 03:43:00,
2013-03-05 22:48:00,28.2,24.3,29.78,East,90,0.0,0.0,85,0.00,,,0.18,WUHU21623XXSP,2013-03-06 03:48:00,
2013-03-05 22:53:00,28.2,24.3,29.78,East,90,0.0,0.0,85,0.00,,,0.18,WUHU21623XXSP,2013-03-06 03:53:00,
2013-03-05 22:58:00,28.2,24.3,29.78,East,90,0.0,0.0,85,0.00,,,0.18,WUHU21623XXSP,2013-03-06 03:58:00,
2013-03-05 23:03:00,28.2,24.3,29.79,East,90,0.0,0.0,85,0.00,,,0.18,WUHU21623XXSP,2013-03-06 04:03:00,
2013-03-05 23:08:00,28.2,24.3,29.79,East,90,0.0,0.0,85,0.00,,,0.18,WUHU21623XXSP,2013-03-06 04:08:00,
2013-03-05 23:13:00,28.2,24.3,29.79,East,90,0.0,0.0,85,0.00,,,0.18,WUHU21623XXSP,2013-03-06 04:13:00,
2013-03-05 23:18:00,28.4,24.4,29.79,East,90,0.0,0.0,85,0.00,,,0.18,WUHU21623XXSP,2013-03-06 04:18:00,
2013-03-05 23:23:00,28.4,24.4,29.79,East,90,0.0,0.0,85,0.00,,,0.18,WUHU21623XXSP,2013-03-06 04:23:00,
2013-03-05 23:28:00,28.4,24.4,29.79,East,90,0.0,0.0,85,0.00,,,0.18,WUHU21623XXSP,2013-03-06 04:28:00,
2013-03-05 23:33:00,28.6,24.6,29.79,East,90,0.0,0.0,85,0.00,,,0.18,WUHU21623XXSP,2013-03-06 04:33:00,
2013-03-05 23:38:00,28.6,24.6,29.79,East,90,0.0,0.0,85,0.00,,,0.18,WUHU21623XXSP,2013-03-06 04:38:00,
2013-03-05 23:43:00,28.6,24.6,29.79,East,90,0.0,0.0,85,0.00,,,0.18,WUHU21623XXSP,2013-03-06 04:43:00,
2013-03-05 23:48:00,28.6,24.6,29.80,East,90,0.0,0.0,85,0.00,,,0.18,WUHU21623XXSP,2013-03-06 04:48:00,
2013-03-05 23:53:00,28.6,24.6,29.80,East,90,0.0,0.0,85,0.00,,,0.18,WUHU21623XXSP,2013-03-06 04:53:00,
2013-03-05 23:58:00,28.6,24.6,29.80,East,90,0.0,0.0,85,0.00,,,0.18,WUHU21623XXSP,2013-03-06 04:58:00,